SL-16 DEB

Satellite information

Favourite Embed

Satellite Type and Status

DEBRISIN ORBIT

Key statistics

Satellite SL-16 DEB at a glance.

Uptime

9350

Days in orbit

Revolutions

≈ 13.7

Per day

Orbit

LEO

Low Earth Orbit

Inclination

71.0

Latest

Satellite identification and parameters

Extended collection of information and parameters for SL-16 DEB.

Object identification

Identified? True

Debris? True

Object name: SL-16 DEB

International designator: 2000-006G

Object number (NORAD): 26077

Object ID (CCSDS): 26077

Country: COMMONWEALTH OF INDEPENDENT STATES (CIS)

Current information (Y/N): Y

RCS size: SMALL

Orbital parameters

Period: 104.86 minutes

Inclination: 70.9717 deg

SMA: 7366.048 km

Apoapsis: 1138.501 km

Periapsis: 837.324 km

RAAN: 1.6948 deg

Eccentricy: 0.02044362

Argument of periapsis: 186.4586 deg

Mean anomaly: 192.5425 deg

Mean motion: 13.73254305 rev/day

Mean motion (dot): 0.00000161 rev/day2

B* drag term: 0.00018902776 1/REarth

Two-line elements (TLE)

Creation date: Sept. 8, 2025, 6:18 p.m.

Reference frame: TEME

Reference center: EARTH

Epoch: Sept. 8, 2025, 1:40 p.m. UTC

TLE line 0: 0 SL-16 DEB

TLE line 1: 1 26077U 00006G 25251.56978687 .00000161 00000-0 18903-3 0 9991

TLE line 2: 2 26077 70.9717 1.6948 0204436 186.4586 192.5425 13.73254305282339

Live tracking on map

Real-time ground track for satellite SL-16 DEB.

In-orbit conjunctions

A list of the most updated potential collisions computed for object SL-16 DEB.

Target Orbit TCA Probability of collision Miss distance Type
DELTA 1 DEB LEO 2024-09-25 23:37:44 0.0005100823 661.0 (m) DEBRIS

Associated space launch

Second generation ELING satellite

SL-16 DEB was lifted into orbit during the mission ‘Zenit-2 | Tselina-2 21’, on board a Zenit-2 space rocket.

The launch took place on Feb. 3, 2000, 9:26 a.m. from 45/1.

For more information about the launch, click the button.

Launch to space Zenit-2 | Tselina-2 21
Zenit-2 | Tselina-2 21

Agency: N/A

Status: Launch Successful

Launch date: Feb. 3, 2000, 9:26 a.m. UTC

Rocket: Zenit-2

Launch pad: 45/1

Location: Baikonur Cosmodrome, Republic of Kazakhstan

...

Latest news about this satellite

There are no fresh news available about this satellite. Check back as we update our databases every day.


Newsletter sign-up

Weekly statistics, charts and insights to help you stay on top of the space industry.